Weather History for Eastman, GA

Change the Weather History Date:

Monday, March 31, 2014

  Actual Average Record
Temperature  
Mean Temperature 60 °F -  
Max Temperature 81 °F 74 °F 81 °F (2013)
Min Temperature 38 °F 50 °F 38 °F (2014)
Degree Days  
Heating Degree Days 6    
Growing Degree Days 10 (Base 50)    
Moisture  
Dew Point 39 °F    
Average Humidity 59    
Maximum Humidity 100    
Minimum Humidity 16    
Precipitation  
Precipitation 0.00 in - - ()
Sea Level Pressure  
Sea Level Pressure 30.14 in    
Wind  
Wind Speed 1 mph (WNW)    
Max Wind Speed 7 mph    
Max Gust Speed -    
Visibility 10 miles    
Events      
Averages and records for this station are not official NWS values.
T = Trace of Precipitation, MM = Missing Value Source: NWS Daily Summary

Daily Weather History Graph

Daily Weather History Graph

Search for Another Location

Airport:

Trip Planner

Search our weather history database for the weather conditions in past years. The results will help you decide how hot, cold, wet, or windy it might be!

Date:

Astronomy

Mar. 31, 2014 Rise Set
Actual Time 7:22 AM EDT 7:51 PM EDT
Civil Twilight 6:57 AM EDT 8:16 PM EDT
Nautical Twilight 6:28 AM EDT 8:45 PM EDT
Astronomical Twilight 5:59 AM EDT 9:14 PM EDT
Moon 7:48 AM EDT (3/31) 9:03 PM EDT (3/31)
Length of Visible Light 13h 18m
Length of Day
12h 29m
New Moon, 1% of the Moon is Illuminated
Mar 31
New Moon
Apr 7
First Quarter
Apr 15
Full
Apr 22
Last Quarter
Apr 29
New

Hourly Weather History & Observations

Time (EDT) Temp. Dew Point Humidity Pressure Visibility Wind Dir Wind Speed Gust Speed Precip Events Conditions
12:15 AM 50.0 °F 43.0 °F 77% 30.13 in 10.0 mi Calm Calm - N/A   Clear
12:35 AM 48.0 °F 42.3 °F 80% 30.14 in 10.0 mi Calm Calm - N/A   Clear
12:55 AM 47.3 °F 42.3 °F 83% 30.14 in 10.0 mi Calm Calm - N/A   Clear
1:15 AM 46.6 °F 42.1 °F 84% 30.14 in 10.0 mi Calm Calm - N/A   Clear
1:35 AM 46.4 °F 43.9 °F 91% 30.14 in 10.0 mi Calm Calm - N/A   Clear
1:55 AM 45.7 °F 45.0 °F 97% 30.13 in 10.0 mi Calm Calm - N/A   Clear
2:15 AM 45.3 °F 44.6 °F 97% 30.13 in 10.0 mi Calm Calm - N/A   Clear
2:35 AM 45.1 °F 43.7 °F 95% 30.13 in 10.0 mi Calm Calm - N/A   Clear
2:55 AM 44.8 °F 42.8 °F 93% 30.12 in 10.0 mi Calm Calm - N/A   Clear
3:15 AM 45.7 °F 42.4 °F 88% 30.12 in 10.0 mi Calm Calm - N/A   Clear
3:35 AM 42.8 °F 42.8 °F 100% 30.12 in 10.0 mi Calm Calm - N/A   Clear
3:55 AM 42.1 °F 41.7 °F 99% 30.12 in 10.0 mi Calm Calm - N/A   Clear
4:15 AM 42.1 °F 41.7 °F 99% 30.12 in 10.0 mi Calm Calm - N/A   Clear
4:35 AM 43.5 °F 42.6 °F 97% 30.11 in 10.0 mi Calm Calm - N/A   Clear
4:55 AM 45.3 °F 41.5 °F 87% 30.11 in 10.0 mi Calm Calm - N/A   Clear
5:15 AM 43.2 °F 40.8 °F 91% 30.12 in 10.0 mi Calm Calm - N/A   Clear
5:35 AM 41.2 °F 41.0 °F 99% 30.12 in 10.0 mi Calm Calm - N/A   Clear
5:55 AM 40.1 °F 39.7 °F 99% 30.12 in 10.0 mi Calm Calm - N/A   Clear
6:15 AM 40.1 °F 40.1 °F 100% 30.12 in 10.0 mi Calm Calm - N/A   Clear
6:35 AM 40.1 °F 40.1 °F 100% 30.13 in 10.0 mi Calm Calm - N/A   Clear
6:55 AM 39.4 °F 39.4 °F 100% 30.14 in 5.0 mi Calm Calm - N/A   Clear
7:15 AM 39.6 °F 39.6 °F 100% 30.15 in 4.0 mi Calm Calm - N/A   Clear
7:35 AM 39.6 °F 39.6 °F 100% 30.16 in 5.0 mi Calm Calm - N/A   Clear
7:55 AM 38.7 °F 38.7 °F 100% 30.17 in 7.0 mi Calm Calm - N/A   Clear
8:15 AM 42.4 °F 42.4 °F 100% 30.18 in 2.5 mi Calm Calm - N/A   Clear
8:35 AM 45.1 °F 45.1 °F 100% 30.18 in 10.0 mi Calm Calm - N/A   Clear
8:55 AM 49.1 °F 46.4 °F 90% 30.19 in 10.0 mi Calm Calm - N/A   Clear
9:15 AM 52.3 °F 44.8 °F 75% 30.20 in 10.0 mi North 3.5 mph - N/A   Clear
9:35 AM 54.5 °F 42.6 °F 64% 30.20 in 10.0 mi NNW 4.6 mph - N/A   Clear
9:55 AM 57.4 °F 42.1 °F 57% 30.20 in 10.0 mi Calm Calm - N/A   Clear
10:15 AM 59.9 °F 40.1 °F 48% 30.20 in 10.0 mi NE 3.5 mph - N/A   Clear
10:35 AM 63.5 °F 36.0 °F 36% 30.20 in 10.0 mi East 4.6 mph - N/A   Clear
10:55 AM 64.0 °F 37.0 °F 37% 30.21 in 10.0 mi ESE 4.6 mph - N/A   Clear
11:10 AM 64.8 °F 36.9 °F 36% 30.21 in 10.0 mi Calm Calm - N/A   Clear
11:35 AM 66.4 °F 35.4 °F 32% 30.21 in 10.0 mi East 3.5 mph - N/A   Clear
11:55 AM 68.4 °F 34.9 °F 29% 30.20 in 10.0 mi Calm Calm - N/A   Clear
12:15 PM 69.1 °F 33.8 °F 27% 30.20 in 10.0 mi Calm Calm - N/A   Clear
12:35 PM 71.2 °F 32.4 °F 24% 30.20 in 10.0 mi Calm Calm - N/A   Clear
12:55 PM 73.2 °F 33.4 °F 23% 30.19 in 10.0 mi Calm Calm - N/A   Clear
1:15 PM 74.3 °F 33.3 °F 22% 30.18 in 10.0 mi Calm Calm - N/A   Clear
1:35 PM 75.0 °F 33.3 °F 22% 30.18 in 10.0 mi Calm Calm - N/A   Clear
1:55 PM 75.0 °F 31.8 °F 21% 30.17 in 10.0 mi SW 4.6 mph - N/A   Clear
2:15 PM 76.3 °F 34.0 °F 21% 30.16 in 10.0 mi Calm Calm - N/A   Clear
2:35 PM 77.4 °F 31.5 °F 19% 30.15 in 10.0 mi West 4.6 mph - N/A   Clear
2:55 PM 78.6 °F 32.0 °F 18% 30.15 in 10.0 mi WNW 4.6 mph - N/A   Clear
3:15 PM 79.3 °F 33.1 °F 19% 30.14 in 10.0 mi South 3.5 mph - N/A   Clear
3:35 PM 79.2 °F 35.4 °F 21% 30.13 in 10.0 mi WNW 3.5 mph - N/A   Clear
3:55 PM 80.6 °F 34.9 °F 19% 30.12 in 10.0 mi WNW 6.9 mph - N/A   Clear
4:15 PM 80.6 °F 33.4 °F 18% 30.12 in 10.0 mi WNW 5.8 mph - N/A   Clear
4:35 PM 81.0 °F 33.6 °F 18% 30.12 in 10.0 mi WNW 4.6 mph - N/A   Clear
4:55 PM 81.1 °F 33.6 °F 18% 30.11 in 10.0 mi West 3.5 mph - N/A   Clear
5:15 PM 80.8 °F 32.5 °F 17% 30.11 in 10.0 mi NW 3.5 mph - N/A   Clear
5:35 PM 80.8 °F 31.8 °F 17% 30.11 in 10.0 mi West 3.5 mph - N/A   Clear
5:55 PM 80.8 °F 30.6 °F 16% 30.10 in 10.0 mi West 5.8 mph - N/A   Clear
6:15 PM 80.8 °F 31.8 °F 17% 30.10 in 10.0 mi West 3.5 mph - N/A   Clear
6:35 PM 80.6 °F 32.0 °F 17% 30.10 in 10.0 mi Calm Calm - N/A   Clear
6:55 PM 79.7 °F 30.9 °F 17% 30.10 in 10.0 mi WNW 3.5 mph - N/A   Clear
7:15 PM 77.7 °F 34.2 °F 21% 30.10 in 10.0 mi Calm Calm - N/A   Clear
7:35 PM 73.0 °F 36.3 °F 26% 30.11 in 10.0 mi Calm Calm - N/A   Clear
7:55 PM 68.4 °F 35.4 °F 30% 30.11 in 10.0 mi Calm Calm - N/A   Clear
8:15 PM 65.7 °F 38.5 °F 37% 30.12 in 10.0 mi Calm Calm - N/A   Clear
8:35 PM 62.8 °F 40.8 °F 45% 30.12 in 10.0 mi Calm Calm - N/A   Clear
8:55 PM 60.6 °F 43.0 °F 52% 30.13 in 10.0 mi Calm Calm - N/A   Clear
9:15 PM 60.6 °F 44.1 °F 54% 30.13 in 10.0 mi Calm Calm - N/A   Clear
9:35 PM 58.5 °F 47.8 °F 68% 30.14 in 10.0 mi Calm Calm - N/A   Clear
9:55 PM 56.5 °F 45.5 °F 67% 30.14 in 10.0 mi Calm Calm - N/A   Clear
10:15 PM 55.0 °F 46.9 °F 74% 30.14 in 10.0 mi Calm Calm - N/A   Clear
10:35 PM 55.0 °F 48.2 °F 78% 30.14 in 10.0 mi Calm Calm - N/A   Clear
10:55 PM 53.2 °F 48.0 °F 82% 30.14 in 10.0 mi Calm Calm - N/A   Clear
11:15 PM 52.7 °F 48.2 °F 85% 30.14 in 10.0 mi Calm Calm - N/A   Clear
11:35 PM 51.8 °F 49.5 °F 92% 30.15 in 10.0 mi Calm Calm - N/A   Clear
11:55 PM 50.9 °F 48.7 °F 92% 30.15 in 10.0 mi Calm Calm - N/A   Clear